STARLINK-34583 (64713 NORAD) Tracking and Keplerian Element Data

This shows tracking and keplerian element data for the satellite.

Feedback or suggestion? Click here.




ElementValue
Catalog64713
NameSTARLINK-34583
Epoch Orbit2755
Epoch Day354.15495755
Epoch Year2025
RAAN154.7089
Inclination70.0006
Eccentricity0.0002845
Argument of Perigee277.3328
Mean Anonmoly82.7507
Mean Motion14.95912871
Decay Rate1.952E-05
L11 64713U 25142T 25354.15495755 .00001952 00000+0 18218-3 0 9994
L22 64713 70.0006 154.7089 0002845 277.3328 82.7507 14.95912871 27556



Live tracking and technical data element details for STARLINK-34583 (NORAD 64713). STARLINK-34583 can be tracked NOW for your location showing map with azimuth and elevation plus other details from your city location.







IsCatalogInMostPopularTable: catalog: 64713, numindb: 12
Update: records affected: 1



GetName: 64713 STARLINK-34583

Hit Count: updated at: Mon, 11 May 2026 11:42:25 GMT